Retour au catalogue

PICOSAT 4

ActifScienceLEO
NORAD 26092·PAYLOAD·🇺🇸 United States

Lancé Jan 27, 2000 depuis Vandenberg Space Force Base

Loading…

Prochains Passages (prochaines 24 heures)

TLE

FraisSource: Space-Track

Époque: Sep 13, 2026, 14:36 UTC

1 26092U 00004K   26256.60860178  .00000435  00000-0  13082-3 0  9999
2 26092 100.2018 301.4824 0030773 248.4954 111.2952 14.48933907399146

Suivez PICOSAT 4 en temps réel avec AllMySat

Download on the App Store